Location: Del Amo
(33.8464°N, 118.2104°W)
Time: 23:56:36
(UTC+00:00)

Courier 1B - All Passes

Search period start: 11 September 2024 00:00
Search period end: 21 September 2024 00:00
Orbit: 962 x 1208 km, 28.3° (Epoch: 11 September)

Date Brightness Start Highest point End Pass type
(mag) Time Alt. Az. Time Alt. Az. Time Alt. Az.
11 Sep - 00:40:06 10° WSW 00:47:36 55° S 00:55:15 10° E daylight
11 Sep - 02:34:07 10° W 02:41:45 55° S 02:49:18 10° ESE visible
11 Sep - 04:28:46 10° W 04:35:38 34° SSW 04:42:18 10° SE visible
11 Sep - 06:26:09 10° SW 06:29:02 12° SSW 06:31:52 10° S visible
11 Sep - 21:53:50 10° SSW 21:59:54 28° SSE 22:06:13 10° E daylight
11 Sep - 23:46:19 10° WSW 23:53:38 51° S 00:01:11 10° E daylight
12 Sep - 01:40:07 10° W 01:47:44 58° S 01:55:24 10° ESE daylight
12 Sep - 03:34:32 10° W 03:41:45 40° SSW 03:48:50 10° SE visible
12 Sep - 05:30:30 10° WSW 05:35:17 18° SSW 05:40:00 10° S visible
12 Sep - 21:00:53 10° SSW 21:06:09 22° SSE 21:11:36 10° ESE daylight
12 Sep - 22:52:41 10° SW 22:59:42 45° SSE 23:07:02 10° E daylight
13 Sep - 00:46:12 10° WSW 00:53:44 59° S 01:01:26 10° ESE daylight
13 Sep - 02:40:24 10° W 02:47:49 46° SSW 02:55:12 10° SE visible
13 Sep - 04:35:39 10° WSW 04:41:31 23° SSW 04:47:16 10° SSE visible
13 Sep - 20:08:24 10° S 20:12:27 16° SSE 20:16:36 10° ESE daylight
13 Sep - 21:59:10 10° SW 22:05:50 38° SSE 22:12:50 10° E daylight
13 Sep - 23:52:22 10° WSW 23:59:44 57° S 00:07:24 10° E daylight
14 Sep - 01:46:23 10° W 01:53:51 52° S 02:01:24 10° ESE daylight
14 Sep - 03:41:09 10° W 03:47:41 29° SSW 03:54:09 10° SSE visible
14 Sep - 19:17:17 10° SSE 19:18:47 11° SSE 19:20:17 10° SE daylight
14 Sep - 21:05:51 10° SW 21:12:01 32° SSE 21:18:32 10° E daylight
14 Sep - 22:58:36 10° WSW 23:05:47 54° S 23:13:18 10° E daylight
15 Sep - 00:52:26 10° W 00:59:51 56° S 01:07:30 10° ESE daylight
15 Sep - 02:46:52 10° W 02:53:48 35° SSW 03:00:45 10° SE visible
15 Sep - 04:43:35 10° WSW 04:47:20 14° SSW 04:51:03 10° S visible
15 Sep - 20:12:46 10° SSW 20:18:17 25° SSE 20:24:05 10° ESE daylight
15 Sep - 22:04:57 10° WSW 22:11:53 49° SSE 22:19:11 10° E daylight
15 Sep - 23:58:33 10° W 00:05:53 58° S 00:13:31 10° ESE daylight
16 Sep - 01:52:45 10° W 01:59:53 41° SSW 02:07:09 10° SE daylight
16 Sep - 03:48:21 10° WSW 03:53:32 19° SSW 03:58:43 10° SSE visible
16 Sep - 19:20:00 10° SSW 19:24:36 19° SSE 19:29:23 10° ESE daylight
16 Sep - 21:11:26 10° SW 21:18:01 42° SSE 21:25:01 10° E daylight
16 Sep - 23:04:44 10° WSW 23:11:55 58° S 23:19:29 10° ESE daylight
17 Sep - 00:58:45 10° W 01:05:58 47° SSW 01:13:23 10° ESE daylight
17 Sep - 02:53:42 10° WSW 02:59:43 25° SSW 03:05:46 10° SSE visible
17 Sep - 18:27:50 10° S 18:30:58 14° SSE 18:34:11 10° ESE daylight
17 Sep - 20:18:02 10° SW 20:24:14 36° SSE 20:30:47 10° E daylight
17 Sep - 22:11:01 10° WSW 22:17:59 56° S 22:25:24 10° E daylight
18 Sep - 00:04:50 10° W 00:12:00 52° S 00:19:31 10° ESE daylight
18 Sep - 01:59:22 10° W 02:05:51 30° SSW 02:12:29 10° SE daylight
18 Sep - 03:57:52 10° SW 03:59:22 11° SSW 04:00:52 10° SSW visible
18 Sep - 19:24:50 10° SW 19:30:31 29° SSE 19:36:29 10° E daylight
18 Sep - 21:17:21 10° WSW 21:24:06 52° S 21:31:18 10° E daylight
18 Sep - 23:10:59 10° W 23:18:04 55° S 23:25:33 10° ESE daylight
19 Sep - 01:05:13 10° W 01:11:58 36° SSW 01:18:58 10° SE daylight
19 Sep - 03:01:28 10° WSW 03:05:34 15° SSW 03:09:43 10° S visible
19 Sep - 18:31:51 10° SSW 18:36:50 22° SSE 18:42:02 10° ESE daylight
19 Sep - 20:23:48 10° WSW 20:30:17 46° SSE 20:37:11 10° E daylight
19 Sep - 22:17:13 10° WSW 22:24:09 57° S 22:31:32 10° ESE daylight
20 Sep - 00:11:14 10° W 00:18:05 42° SSW 00:25:16 10° SE daylight
20 Sep - 02:06:31 10° WSW 02:11:45 20° SSW 02:17:07 10° SSE visible
20 Sep - 17:39:15 10° S 17:43:13 17° SSE 17:47:18 10° ESE daylight
20 Sep - 19:30:21 10° SW 19:36:31 39° SSE 19:43:02 10° E daylight
20 Sep - 21:23:30 10° WSW 21:30:16 56° S 21:37:29 10° ESE daylight
20 Sep - 23:17:20 10° W 23:24:12 47° SSW 23:31:27 10° ESE daylight
